DW8231 Weather Reports


Display with metric or nautical units.
time (UTC)temp
F
wind
direction
speed
MPH
gust
MPH
rain 1hr
in
rain 24hr
in
rain mn
in
humidity
%
barometer
mb
20260906153019 71 190 0.0 0.0 0.00 0.00 0.00 88 1018.1
20260906152519 71 136 0.0 0.0 0.00 0.00 0.00 88 1018.2
20260906152021 71 119 0.0 0.0 0.00 0.00 0.00 88 1018.1
20260906151516 71 141 0.0 0.0 0.00 0.00 0.00 89 1018.1
20260906151016 71 198 0.0 0.0 0.00 0.00 0.00 90 1018.0
20260906150515 70 115 0.0 0.0 0.00 0.00 0.00 90 1018.0
20260906150015 70 117 0.0 0.0 0.00 0.00 0.00 91 1017.8
20260906145515 70 115 0.0 0.0 0.00 0.00 0.00 91 1017.8
20260906145014 70 154 0.0 0.0 0.00 0.00 0.00 91 1017.8
20260906144518 69 119 0.0 0.0 0.00 0.00 0.00 92 1017.8
20260906144013 69 116 0.0 0.0 0.00 0.00 0.00 92 1017.8
20260906143514 69 126 0.0 0.0 0.00 0.00 0.00 93 1017.9
20260906143014 69 207 0.0 0.0 0.00 0.00 0.00 93 1018.1
20260906142514 69 179 0.0 0.0 0.00 0.00 0.00 93 1018.0
20260906142014 69 128 0.0 0.0 0.00 0.00 0.00 93 1017.9
20260906141515 69 142 0.0 0.0 0.00 0.00 0.00 93 1017.9
20260906141016 68 129 0.0 0.0 0.00 0.00 0.00 94 1017.8
20260906140514 68 124 0.0 0.0 0.00 0.00 0.00 94 1017.8
20260906140030 68 136 0.0 0.0 0.00 0.00 0.00 93 1017.8
20260906135514 68 163 0.0 0.0 0.00 0.00 0.00 94 1017.8
20260906135017 68 107 0.0 0.0 0.00 0.00 0.00 94 1017.8
20260906134513 68 117 0.0 0.0 0.00 0.00 0.00 94 1017.7
20260906134013 68 164 0.0 0.0 0.00 0.00 0.00 94 1017.7
20260906133513 68 114 0.0 0.0 0.00 0.00 0.00 94 1017.6
20260906133022 68 132 0.0 0.0 0.00 0.00 0.00 94 1017.5
20260906132512 68 119 0.0 0.0 0.00 0.00 0.00 94 1017.5
20260906132013 67 147 0.0 0.0 0.00 0.00 0.00 94 1017.5
20260906131512 67 122 0.0 0.0 0.00 0.00 0.00 94 1017.5
20260906131011 67 144 0.0 0.0 0.00 0.00 0.00 94 1017.5
20260906130511 67 144 0.0 0.0 0.00 0.00 0.00 94 1017.5
20260906130020 67 127 0.0 0.0 0.00 0.00 0.00 94 1017.6
20260906125510 67 138 0.0 0.0 0.00 0.00 0.00 94 1017.5
20260906125014 67 121 0.0 0.0 0.00 0.00 0.00 94 1017.4
20260906124510 67 190 0.0 0.0 0.00 0.00 0.00 94 1017.3
20260906124011 67 124 0.0 0.0 0.00 0.00 0.00 94 1017.4
20260906123511 67 115 0.0 0.0 0.00 0.00 0.00 94 1017.4
20260906123018 67 137 0.0 0.0 0.00 0.00 0.00 94 1017.5
20260906122512 67 107 0.0 0.0 0.00 0.00 0.00 93 1017.4
20260906122009 67 106 0.0 0.0 0.00 0.00 0.00 93 1017.4
20260906121508 66 105 0.0 0.0 0.00 0.00 0.00 93 1017.3
20260906121007 66 106 0.0 0.0 0.00 0.00 0.00 93 1017.1
20260906120509 66 105 0.0 0.0 0.00 0.00 0.00 93 1017.1
20260906120009 66 105 0.0 0.0 0.00 0.00 0.00 93 1017.0
20260906115509 66 106 0.0 0.0 0.00 0.00 0.00 93 1016.9
20260906115008 66 109 0.0 0.0 0.00 0.00 0.00 93 1016.9
20260906114510 66 117 0.0 0.0 0.00 0.00 0.00 93 1016.9
20260906114008 67 117 0.0 0.0 0.00 0.00 0.00 93 1016.9
20260906113507 67 117 0.0 0.0 0.00 0.00 0.00 93 1016.9
20260906113011 67 117 0.0 0.0 0.00 0.00 0.00 93 1016.9
20260906112506 67 118 0.0 0.0 0.00 0.00 0.00 93 1017.0
20260906112005 67 118 0.0 0.0 0.00 0.00 0.00 93 1017.0
20260906111504 68 118 0.0 0.0 0.00 0.00 0.00 93 1017.0
20260906111003 68 118 0.0 0.0 0.00 0.00 0.00 93 1016.9
20260906110504 68 118 0.0 0.0 0.00 0.00 0.00 93 1016.9
20260906110003 68 118 0.0 0.0 0.00 0.00 0.00 93 1016.8
20260906105502 68 118 0.0 0.0 0.00 0.00 0.00 93 1016.8
20260906105001 68 118 0.0 0.0 0.00 0.00 0.00 93 1016.7
20260906104502 68 118 0.0 0.0 0.00 0.00 0.00 93 1016.6
20260906104100 68 118 0.0 0.0 0.00 0.00 0.00 93 1016.5
20260906103600 68 118 0.0 0.0 0.00 0.00 0.00 93 1016.5
20260906103102 69 118 0.0 0.0 0.00 0.00 0.00 93 1016.4
20260906102600 69 118 0.0 0.0 0.00 0.00 0.00 93 1016.5
20260906102101 69 118 0.0 0.0 0.00 0.00 0.00 93 1016.5
20260906101600 69 118 0.0 0.0 0.00 0.00 0.00 93 1016.4
20260906101100 69 118 0.0 0.0 0.00 0.00 0.00 93 1016.3
20260906100103 69 117 0.0 0.0 0.00 0.00 0.00 93 1016.1
20260906095559 69 117 0.0 0.0 0.00 0.00 0.00 93 1016.1
20260906095059 69 129 0.0 0.0 0.00 0.00 0.00 93 1016.0
20260906094603 68 115 0.0 0.0 0.00 0.00 0.00 93 1015.9
20260906094100 68 114 0.0 0.0 0.00 0.00 0.00 93 1015.9
20260906093559 68 117 0.0 0.0 0.00 0.00 0.00 93 1015.8
20260906093059 68 117 0.0 0.0 0.00 0.00 0.00 93 1015.7
20260906092601 68 119 0.0 0.0 0.00 0.00 0.00 93 1015.6
20260906092059 68 115 0.0 0.0 0.00 0.00 0.00 93 1015.6
20260906091558 68 121 0.0 0.0 0.00 0.00 0.00 93 1015.6
20260906091058 68 123 0.0 0.0 0.00 0.00 0.00 93 1015.6
20260906090059 68 115 0.0 0.0 0.00 0.00 0.00 93 1015.7
20260906085558 68 91 0.0 0.0 0.00 0.00 0.00 93 1015.7
20260906085058 68 87 0.0 0.0 0.00 0.00 0.00 92 1015.7
20260906084601 68 86 0.0 0.0 0.00 0.00 0.00 92 1015.7
20260906084100 69 86 0.0 0.0 0.00 0.00 0.00 92 1015.6
20260906083600 69 83 0.0 0.0 0.00 0.00 0.00 92 1015.5
20260906083059 69 105 0.0 0.0 0.00 0.00 0.00 92 1015.6
20260906082557 69 92 0.0 0.0 0.00 0.00 0.00 92 1015.7
20260906082056 69 89 0.0 0.0 0.00 0.00 0.00 92 1015.6
20260906081558 69 92 0.0 0.0 0.00 0.00 0.00 92 1015.6
20260906081056 69 113 0.0 0.0 0.00 0.00 0.00 92 1015.8
20260906080057 69 113 0.0 0.0 0.00 0.00 0.00 92 1015.8
20260906075557 69 112 0.0 0.0 0.00 0.00 0.00 92 1015.7
20260906075054 69 113 0.0 0.0 0.00 0.00 0.00 92 1015.9
20260906074555 69 113 0.0 0.0 0.00 0.00 0.00 92 1015.9
20260906074053 69 115 0.0 0.0 0.00 0.00 0.00 92 1015.8
20260906073554 69 93 0.0 0.0 0.00 0.00 0.00 92 1016.0
20260906073054 69 112 0.0 0.0 0.00 0.00 0.00 92 1016.0
20260906072554 69 113 0.0 0.0 0.00 0.00 0.00 92 1016.0
20260906072055 69 103 0.0 0.0 0.00 0.00 0.00 92 1015.9
20260906071553 69 105 0.0 0.0 0.00 0.00 0.00 91 1016.0
20260906071053 69 82 0.0 0.0 0.00 0.00 0.00 91 1015.9
20260906070053 70 88 0.0 0.0 0.00 0.00 0.00 91 1016.0
20260906065554 70 88 0.0 0.0 0.00 0.00 0.00 91 1016.0
20260906065053 70 80 0.0 0.0 0.00 0.00 0.00 91 1016.0
20260906064552 70 79 0.0 0.0 0.00 0.00 0.00 91 1016.1
20260906064052 70 80 0.0 0.0 0.00 0.00 0.00 90 1016.1
20260906063551 70 77 0.0 0.0 0.00 0.00 0.00 90 1016.2
20260906063052 70 76 0.0 0.0 0.00 0.00 0.00 90 1016.2
20260906062551 70 76 0.0 0.0 0.00 0.00 0.00 90 1016.2
20260906062051 70 76 0.0 0.0 0.00 0.00 0.00 90 1016.1
20260906061553 70 85 0.0 0.0 0.00 0.00 0.00 90 1016.1
20260906061050 70 89 0.0 0.0 0.00 0.00 0.00 90 1016.2
20260906060049 71 89 0.0 0.0 0.00 0.00 0.00 89 1016.2
20260906055550 71 89 0.0 0.0 0.00 0.00 0.00 89 1016.1
20260906055049 71 91 0.0 0.0 0.00 0.00 0.00 89 1016.1
20260906054602 71 91 0.0 0.0 0.00 0.00 0.00 89 1016.2
20260906054048 71 91 0.0 0.0 0.00 0.00 0.00 89 1016.2
20260906053547 71 91 0.0 0.0 0.00 0.00 0.00 89 1016.1
20260906053048 71 91 0.0 0.0 0.00 0.00 0.00 89 1016.2
20260906052547 71 91 0.0 0.0 0.00 0.00 0.00 89 1016.2
20260906052047 71 91 0.0 0.0 0.00 0.00 0.00 88 1016.2
20260906051547 71 90 0.0 0.0 0.00 0.00 0.00 88 1016.2
20260906051047 71 90 0.0 0.0 0.00 0.00 0.00 88 1016.2
20260906050046 71 91 0.0 0.0 0.00 0.00 0.00 88 1016.1
20260906045546 71 91 0.0 0.0 0.00 0.00 0.00 88 1016.2
20260906045045 71 91 0.0 0.0 0.00 0.00 0.00 88 1016.3
20260906044545 71 91 0.0 0.0 0.00 0.00 0.00 88 1016.3
20260906044047 71 91 0.0 0.0 0.00 0.00 0.00 87 1016.3
20260906043544 71 91 0.0 0.0 0.00 0.00 0.00 87 1016.4
20260906043148 71 91 0.0 0.0 0.00 0.00 0.00 87 1016.4
20260906042545 71 91 0.0 0.0 0.00 0.00 0.00 87 1016.5
20260906042044 72 90 0.0 0.0 0.00 0.00 0.00 87 1016.5
20260906041544 72 90 0.0 0.0 0.00 0.00 0.00 87 1016.5
20260906041042 72 113 0.0 0.0 0.00 0.00 0.00 86 1016.5
20260906040048 72 119 0.0 0.0 0.00 0.00 0.00 86 1016.4
20260906035544 72 119 0.0 0.0 0.00 0.00 0.00 86 1016.5
20260906035044 72 119 0.0 0.0 0.00 0.00 0.00 86 1016.5
20260906034549 73 119 0.0 0.0 0.00 0.00 0.00 86 1016.4
20260906034043 73 119 0.0 0.0 0.00 0.00 0.00 86 1016.5
20260906033543 73 119 0.0 0.0 0.00 0.00 0.00 86 1016.4
20260906033045 73 119 0.0 0.0 0.00 0.00 0.00 86 1016.4
20260906032543 73 119 0.0 0.0 0.00 0.00 0.00 86 1016.4
20260906032043 72 119 0.0 0.0 0.00 0.00 0.00 86 1016.5
20260906031604 72 119 0.0 0.0 0.00 0.00 0.00 85 1016.5
20260906031046 72 119 0.0 0.0 0.00 0.00 0.00 85 1016.5
20260906030041 72 119 0.0 0.0 0.00 0.00 0.00 84 1016.4
20260906025541 72 119 0.0 0.0 0.00 0.00 0.00 84 1016.1
20260906025040 73 119 0.0 0.0 0.00 0.00 0.00 84 1015.8
20260906024555 73 119 0.0 0.0 0.00 0.00 0.00 84 1015.8
20260906024042 73 119 0.0 0.0 0.00 0.00 0.00 83 1015.7
20260906023539 73 119 0.0 0.0 0.00 0.00 0.00 83 1015.8
20260906023044 73 119 0.0 0.0 0.00 0.00 0.00 82 1015.7
20260906022539 73 119 0.0 0.0 0.00 0.00 0.00 82 1015.6
20260906022040 73 119 0.0 0.0 0.00 0.00 0.00 81 1015.5
20260906021539 74 119 0.0 0.0 0.00 0.00 0.00 81 1015.4
20260906021038 74 119 0.0 0.0 0.00 0.00 0.00 81 1015.3
20260906020040 74 119 0.0 0.0 0.00 0.00 0.00 81 1015.1
20260906015539 74 119 0.0 0.0 0.00 0.00 0.00 81 1014.9
20260906015039 74 119 0.0 0.0 0.00 0.00 0.00 81 1014.6
20260906014539 74 119 0.0 0.0 0.00 0.00 0.00 80 1014.5
20260906014043 74 119 0.0 0.0 0.00 0.00 0.00 80 1014.5
20260906013539 75 119 0.0 0.0 0.00 0.00 0.00 80 1014.5
20260906013039 75 119 0.0 0.0 0.00 0.00 0.00 79 1014.4
20260906012538 75 119 0.0 0.0 0.00 0.00 0.00 79 1014.3
20260906012038 75 119 0.0 0.0 0.00 0.00 0.00 79 1014.3
20260906011538 75 119 0.0 0.0 0.00 0.00 0.00 79 1014.3
20260906011043 75 119 0.0 0.0 0.00 0.00 0.00 78 1014.2
20260906010047 75 119 0.0 0.0 0.00 0.00 0.00 77 1014.0
20260906005537 75 119 0.0 0.0 0.00 0.00 0.00 77 1013.9
20260906005038 76 117 0.0 0.0 0.00 0.00 0.00 77 1013.9
20260906004540 76 117 0.0 0.0 0.00 0.00 0.00 76 1013.9
20260906004038 76 117 0.0 0.0 0.00 0.00 0.00 75 1013.9
20260906003537 77 117 0.0 0.0 0.00 0.00 0.00 74 1014.0
20260906003038 77 116 0.0 0.0 0.00 0.00 0.00 74 1014.0
20260906002537 77 115 0.0 0.0 0.00 0.00 0.00 74 1013.9
20260906002039 77 113 0.0 0.0 0.00 0.00 0.00 73 1013.9
20260906001538 78 115 0.0 0.0 0.00 0.00 0.00 73 1014.0
20260906001036 78 113 0.0 0.0 0.00 0.00 0.00 73 1014.0
20260906000041 78 118 0.0 0.0 0.00 0.00 0.00 74 1013.9
20260905235536 79 158 0.0 0.0 0.00 0.00 0.00 74 1013.8
20260905235037 79 117 0.0 0.0 0.00 0.00 0.00 74 1013.6
20260905234540 79 96 0.0 0.0 0.00 0.00 0.00 74 1013.4
20260905234035 79 132 0.0 0.0 0.00 0.00 0.00 74 1013.4
20260905233539 80 101 0.0 0.0 0.00 0.00 0.00 73 1013.5
20260905233036 80 112 0.0 0.0 0.00 0.00 0.00 73 1013.4
20260905232535 80 70 0.0 0.0 0.00 0.00 0.00 72 1013.4
20260905232038 80 106 0.0 0.0 0.00 0.00 0.00 72 1013.3
20260905231535 81 114 0.0 0.0 0.00 0.00 0.00 71 1013.1
20260905231035 81 90 0.0 0.0 0.00 0.00 0.00 71 1013.0
20260905230036 81 114 0.0 0.0 0.00 0.00 0.00 70 1013.2
20260905225537 81 142 0.0 0.0 0.00 0.00 0.00 70 1013.3
20260905225039 82 83 0.0 0.0 0.00 0.00 0.00 69 1013.3
20260905224535 82 130 0.0 0.0 0.00 0.00 0.00 68 1013.1
20260905224036 82 70 0.0 0.0 0.00 0.00 0.00 68 1013.0
20260905223535 82 48 0.0 0.0 0.00 0.00 0.00 68 1013.0
20260905223035 82 128 0.0 0.0 0.00 0.00 0.00 67 1013.2
20260905222534 82 112 0.0 0.0 0.00 0.00 0.00 68 1013.2
20260905222034 82 116 0.0 0.0 0.00 0.00 0.00 67 1013.1
20260905221534 82 94 0.0 0.0 0.00 0.00 0.00 68 1012.9
20260905221034 82 47 0.0 0.0 0.00 0.00 0.00 67 1012.8
20260905220038 82 28 0.0 0.0 0.00 0.00 0.00 68 1012.9
20260905215533 82 105 0.0 0.0 0.00 0.00 0.00 68 1012.9
20260905215033 82 86 0.0 0.0 0.00 0.00 0.00 69 1012.9
20260905214531 82 360 0.0 0.0 0.00 0.00 0.00 69 1013.0
20260905214031 82 34 0.0 0.0 0.00 0.00 0.00 69 1013.0
20260905213530 82 360 0.0 0.0 0.00 0.00 0.00 69 1013.1
20260905213030 82 26 0.0 0.0 0.00 0.00 0.00 69 1013.2
20260905212529 82 51 0.0 0.0 0.00 0.00 0.00 69 1013.2
20260905212027 82 104 0.0 0.0 0.00 0.00 0.00 70 1013.5
20260905211552 82 107 0.0 0.0 0.00 0.00 0.00 70 1013.6
20260905211025 82 84 0.0 0.0 0.00 0.00 0.00 70 1013.7
20260905210027 81 40 0.0 0.0 0.00 0.00 0.00 70 1013.7
20260905205525 81 52 0.0 0.0 0.00 0.00 0.00 70 1013.8
20260905205024 81 51 0.0 0.0 0.00 0.00 0.00 71 1014.0
20260905204524 81 100 0.0 0.0 0.00 0.00 0.00 71 1014.1
20260905204023 81 22 0.0 0.0 0.00 0.00 0.00 70 1014.2
20260905203520 80 94 0.0 0.0 0.00 0.00 0.00 71 1014.3
20260905203018 80 53 0.0 0.0 0.00 0.00 0.00 71 1014.4
20260905202519 80 73 0.0 0.0 0.00 0.00 0.00 71 1014.4
20260905202019 80 106 0.0 0.0 0.00 0.00 0.00 71 1014.6
20260905201525 80 100 0.0 0.0 0.00 0.00 0.00 71 1014.7
20260905201016 80 103 0.0 0.0 0.00 0.00 0.00 71 1014.9
20260905200016 79 101 0.0 0.0 0.00 0.00 0.00 72 1014.9
20260905195515 79 124 0.0 0.0 0.00 0.00 0.00 73 1014.9
20260905195014 79 80 0.0 0.0 0.00 0.00 0.00 74 1014.9
20260905194514 79 115 0.0 0.0 0.00 0.00 0.00 73 1015.0
20260905194014 79 108 0.0 0.0 0.00 0.00 0.00 73 1015.1
20260905193514 79 36 0.0 0.0 0.00 0.00 0.00 73 1014.9
20260905193014 79 46 0.0 0.0 0.00 0.00 0.00 73 1015.1
20260905192513 79 120 0.0 0.0 0.00 0.00 0.00 73 1015.2
20260905192012 79 76 0.0 0.0 0.00 0.00 0.00 74 1015.2
20260905191512 79 71 0.0 0.0 0.00 0.00 0.00 73 1015.1
20260905191012 79 42 0.0 0.0 0.00 0.00 0.00 74 1015.1
20260905190013 79 142 0.0 0.0 0.00 0.00 0.00 74 1015.1
20260905185510 79 105 0.0 0.0 0.00 0.00 0.00 74 1015.2
20260905185011 79 144 0.0 0.0 0.00 0.00 0.00 74 1015.1
20260905184509 79 52 0.0 0.0 0.00 0.00 0.00 75 1015.1
20260905184008 78 117 0.0 0.0 0.00 0.00 0.00 75 1015.0
20260905183508 78 149 0.0 0.0 0.00 0.00 0.00 75 1015.0
20260905183008 78 67 0.0 0.0 0.00 0.00 0.00 76 1015.0
20260905182507 78 80 0.0 0.0 0.00 0.00 0.00 77 1015.0
20260905182006 77 122 0.0 0.0 0.00 0.00 0.00 76 1015.1
20260905181506 78 112 0.0 0.0 0.00 0.00 0.00 77 1015.2
20260905181005 78 118 0.0 0.0 0.00 0.00 0.00 76 1015.3
20260905180005 78 113 0.0 0.0 0.00 0.00 0.00 78 1015.4
20260905175507 77 74 0.0 0.0 0.00 0.00 0.00 79 1015.5
20260905175003 77 148 0.0 0.0 0.00 0.00 0.00 79 1015.4
20260905174503 77 119 0.0 0.0 0.00 0.00 0.00 80 1015.6
20260905174001 77 122 0.0 0.0 0.00 0.00 0.00 82 1015.7
20260905173559 76 174 0.0 0.0 0.00 0.00 0.00 84 1015.7
20260905173104 75 105 0.0 0.0 0.00 0.00 0.00 85 1015.9
20260905172557 75 109 0.0 0.0 0.00 0.00 0.00 86 1016.0
20260905172055 75 117 0.0 0.0 0.00 0.00 0.00 87 1016.1
20260905171553 75 78 0.0 0.0 0.00 0.00 0.00 89 1016.0
20260905171052 74 44 0.0 0.0 0.00 0.00 0.00 89 1016.0
20260905170049 74 116 0.0 0.0 0.00 0.00 0.00 91 1015.9
20260905165548 73 116 0.0 0.0 0.00 0.00 0.00 91 1016.0
20260905165050 73 115 0.0 0.0 0.00 0.00 0.00 92 1016.0
20260905164545 73 71 0.0 0.0 0.00 0.00 0.00 93 1016.0
20260905164044 72 50 0.0 0.0 0.00 0.00 0.00 93 1016.0
20260905163542 72 42 0.0 0.0 0.00 0.00 0.00 93 1016.1
20260905163041 72 40 0.0 0.0 0.00 0.00 0.00 94 1016.2
20260905162541 72 40 0.0 0.0 0.00 0.00 0.00 94 1016.1
20260905162041 72 40 0.0 0.0 0.00 0.00 0.00 94 1016.2
20260905161539 71 40 0.0 0.0 0.00 0.00 0.00 94 1016.0
20260905161039 71 40 0.0 0.0 0.00 0.00 0.00 94 1016.0
20260905160041 71 40 0.0 0.0 0.00 0.00 0.00 94 1015.5
20260905155541 70 39 0.0 0.0 0.00 0.00 0.00 94 1015.4
20260905155041 70 40 0.0 0.0 0.00 0.00 0.00 94 1015.5
20260905154540 70 40 0.0 0.0 0.00 0.00 0.00 94 1015.5
20260905154043 70 38 0.0 0.0 0.00 0.00 0.00 94 1015.5
20260905153541 70 52 0.0 0.0 0.00 0.00 0.00 94 1015.5
20260905153040 70 43 0.0 0.0 0.00 0.00 0.00 94 1015.5